Wind_Speed
31 31 31 32 34 34 33 33 33 33 33 33 33 32 33 34 34 33 33 32 31 29 28 28 28 27 26 25 25 25 26 26 26 27 27 27 28 29
31 31 31 31 32 32 32 32 32 32 32 32 32 32 32 33 34 34 34 34 33 31 30 29 28 27 26 26 25 25 25 26 26 27 27 28 28 30
30 30 30 30 32 32 32 31 32 32 32 32 32 32 32 32 32 33 33 32 30 29 28 27 27 26 25 25 25 25 26 27 27 28 28 28 29 30
29 30 30 29 30 30 30 30 31 31 31 31 31 30 30 30 31 31 30 29 28 27 26 26 26 26 25 25 25 26 26 27 27 28 28 29 30 31
26 27 28 29 29 29 30 31 31 30 30 31 30 30 30 30 30 29 28 27 26 25 25 25 25 25 25 25 25 26 26 27 27 28 28 28 29 30
23 24 25 26 26 27 28 28 29 29 29 29 29 29 29 29 29 28 26 26 25 24 24 24 23 24 24 25 26 26 26 27 28 28 28 28 29 29
20 20 22 22 23 24 25 25 25 25 25 25 25 25 24 24 24 23 22 22 23 23 23 23 23 24 24 24 25 26 26 27 27 28 28 28 28 29
15 16 16 18 19 20 20 20 21 21 21 21 22 21 20 20 19 19 20 20 21 21 22 22 23 23 24 24 25 26 26 26 26 27 27 28 28 28
12 12 13 13 14 15 16 17 17 16 16 17 17 17 17 18 18 19 19 20 21 21 21 21 22 22 23 23 23 24 24 25 25 26 26 27 27 27
9 9 10 11 11 11 12 13 14 14 14 15 15 16 16 17 18 18 19 19 19 19 20 20 20 21 21 21 21 22 23 23 23 24 24 25 26 26
7 8 8 9 10 10 11 12 13 13 12 12 13 13 14 15 15 16 16 16 17 17 17 18 18 18 19 19 20 20 20 21 21 22 22 21 21 21
5 6 7 7 8 8 9 10 11 12 12 12 13 13 13 13 14 14 14 14 14 14 15 15 15 16 17 17 18 18 17 18 18 18 18 18 18 18
3 4 5 6 7 7 8 8 10 10 11 11 12 12 12 12 12 12 13 13 13 13 13 13 14 14 15 15 15 15 15 15 16 16 16 16 16 16
1 1 2 4 4 5 6 7 8 9 9 10 10 10 11 11 11 11 11 11 11 11 11 11 12 12 12 12 12 12 12 12 12 12 13 13 13 14
2 1 1 2 3 4 4 5 5 6 7 8 8 8 9 9 9 9 10 10 10 10 10 9 9 9 10 10 10 9 9 9 9 9 10 10 11 12
5 3 2 1 2 3 4 4 4 4 5 6 6 7 7 7 7 7 7 7 8 8 7 7 7 7 6 6 7 7 8 8 9 9 10 10 11 12
8 7 5 4 3 3 3 3 3 3 4 4 5 5 6 6 6 5 5 5 5 5 5 5 5 5 5 5 6 6 7 7 8 9 10 11 11 12
10 9 7 6 5 4 4 3 3 3 3 3 4 4 5 5 5 4 4 4 4 4 4 3 3 3 3 3 4 5 6 6 7 8 9 10 11 11
12 12 11 10 8 7 6 6 5 5 5 4 4 4 4 4 4 4 4 3 3 2 2 2 2 2 2 3 4 4 5 6 7 8 9 10 11 11
14 13 13 12 11 10 9 8 8 7 7 6 6 6 5 5 5 5 4 3 3 2 1 1 0 1 2 3 3 5 6 6 7 8 9 10 11 12
14 14 13 13 12 12 11 10 9 8 8 8 8 7 7 6 6 5 4 3 3 2 2 1 1 2 2 3 4 5 6 7 8 8 10 11 12 13
13 13 12 12 12 12 11 11 10 10 9 9 8 8 7 6 5 5 4 3 3 2 2 2 3 3 3 3 4 5 6 7 8 9 10 11 13 14
12 11 11 11 10 10 10 10 10 10 9 9 8 7 6 6 5 4 4 4 3 3 3 3 3 3 4 4 5 6 7 8 9 10 11 12 13 14
Wind_Direction
247 248 250 250 248 248 248 249 250 252 253 255 255 253 251 250 250 249 251 251 251 252 254 256 257 257 259 262 264 265 267 269 270 271 272 274 274 274
247 249 249 249 248 248 248 248 250 251 253 255 255 254 253 251 250 248 250 250 250 251 254 255 255 256 258 261 263 266 268 271 272 273 274 275 276 276
245 247 248 248 247 246 246 247 249 252 253 254 253 253 250 250 249 249 248 248 247 249 252 253 254 255 257 261 264 267 270 273 274 274 276 276 277 278
247 247 247 246 247 247 246 248 250 250 251 251 251 250 249 248 249 246 247 246 247 249 251 253 255 257 259 262 265 268 272 274 275 276 277 278 279 279
248 247 246 245 245 246 248 250 248 248 250 250 249 250 250 248 247 246 247 247 246 248 251 253 256 260 262 264 267 270 273 275 276 277 278 280 281 280
247 246 245 244 244 245 246 247 246 247 247 246 247 248 249 247 245 245 246 246 246 248 252 254 258 262 265 267 270 273 274 275 276 277 279 280 281 281
246 243 239 238 240 240 242 243 243 243 242 242 243 246 246 244 243 244 245 247 248 251 255 258 262 265 267 270 272 274 275 276 276 278 279 280 280 280
239 237 237 235 234 234 238 238 239 238 240 241 241 240 241 241 242 243 245 248 252 254 257 261 264 268 270 272 274 275 276 277 277 278 280 280 279 279
232 236 237 233 230 233 234 234 234 233 236 236 237 241 243 243 243 245 248 251 254 257 260 265 268 269 271 273 275 276 277 278 279 279 281 281 280 280
230 232 233 233 229 226 227 230 230 231 232 231 233 237 240 243 245 247 250 253 255 257 260 264 266 270 272 274 276 277 279 278 279 281 282 283 282 282
242 240 234 229 228 225 223 223 224 223 224 230 232 235 236 239 242 247 250 253 256 257 260 264 267 272 274 275 276 278 278 279 280 283 285 286 286 287
243 238 232 226 224 223 222 224 224 226 229 233 236 238 240 242 243 247 251 253 256 259 261 265 268 272 275 277 278 280 280 282 283 285 288 289 288 291
249 239 233 229 222 223 218 219 222 226 229 232 235 237 238 240 241 245 248 252 256 259 261 264 268 272 276 278 279 281 282 284 286 288 290 291 291 290
301 236 225 221 215 214 214 215 221 224 226 228 231 234 237 239 241 244 246 248 251 255 258 262 268 272 276 279 282 283 285 288 289 291 293 295 294 294
55 83 165 191 194 195 201 209 213 217 222 224 226 230 234 235 238 241 243 245 248 252 256 259 265 271 277 282 286 287 290 295 297 302 307 308 307 307
65 73 96 151 167 178 185 198 213 218 218 218 224 230 231 229 233 236 239 243 245 247 248 252 261 272 282 287 291 295 297 301 306 309 311 312 313 314
65 71 82 100 123 136 150 167 184 194 200 210 215 217 215 216 220 224 228 228 230 232 239 248 259 268 275 285 293 299 303 309 313 316 318 320 321 320
62 68 76 84 94 106 115 125 136 152 161 169 177 187 192 195 199 204 206 207 211 223 237 247 258 271 282 292 304 312 318 322 324 326 328 330 331 330
61 65 70 77 83 90 98 103 108 116 124 130 134 145 155 161 163 166 170 175 183 203 220 234 248 274 295 311 325 331 332 333 335 337 338 340 340 339
62 65 68 72 77 83 90 96 99 100 104 107 112 124 133 138 141 140 141 146 152 153 155 152 301 327 330 331 334 337 340 342 345 345 344 344 344 344
61 63 65 69 73 78 83 87 90 94 97 103 108 113 119 123 126 128 128 128 130 123 110 82 46 26 10 358 352 352 353 354 352 351 350 350 350 350
57 60 64 68 73 78 80 82 83 88 95 101 105 107 109 114 116 116 116 116 112 101 92 77 56 39 23 10 3 360 358 356 354 353 353 354 353 352
57 60 62 66 71 77 80 81 82 85 90 94 98 101 103 104 104 103 102 101 98 94 85 70 52 35 23 14 6 0 356 354 352 351 352 352 353 353
Height
5816 5818 5820 5822 5824 5826 5828 5830 5831 5832 5834 5835 5836 5837 5839 5841 5842 5844 5845 5847 5848 5849 5850 5850 5850 5851 5851 5851 5851 5851 5850 5850 5849 5849 5848 5846 5845 5844
5808 5810 5812 5814 5815 5817 5819 5821 5823 5825 5825 5827 5828 5829 5831 5832 5834 5836 5837 5839 5840 5841 5842 5843 5843 5844 5844 5844 5844 5844 5844 5843 5842 5842 5840 5839 5838 5837
5800 5802 5804 5806 5807 5809 5811 5813 5815 5816 5817 5818 5820 5821 5823 5824 5826 5827 5829 5830 5832 5833 5835 5835 5836 5837 5837 5838 5838 5837 5837 5836 5835 5834 5833 5832 5831 5830
5793 5794 5796 5798 5800 5801 5803 5805 5807 5808 5810 5811 5812 5813 5815 5817 5818 5820 5821 5823 5825 5826 5827 5828 5829 5830 5830 5831 5831 5831 5830 5829 5828 5827 5826 5825 5823 5822
5785 5787 5788 5790 5792 5794 5796 5798 5799 5801 5802 5804 5805 5806 5808 5809 5811 5813 5814 5816 5818 5819 5820 5821 5822 5823 5824 5824 5824 5823 5823 5822 5821 5820 5818 5817 5816 5814
5779 5780 5782 5783 5785 5787 5789 5790 5792 5793 5795 5796 5797 5799 5801 5802 5804 5806 5808 5810 5811 5813 5814 5815 5816 5817 5817 5817 5817 5816 5816 5815 5814 5813 5811 5810 5808 5807
5773 5774 5775 5777 5779 5780 5782 5784 5785 5787 5788 5789 5791 5793 5794 5796 5798 5800 5802 5804 5805 5807 5808 5809 5810 5810 5810 5810 5810 5809 5809 5808 5807 5805 5804 5802 5801 5799
5768 5769 5770 5772 5773 5775 5776 5778 5779 5781 5782 5784 5785 5787 5789 5791 5793 5795 5797 5799 5800 5802 5802 5803 5804 5804 5804 5804 5803 5803 5802 5801 5800 5798 5797 5795 5793 5791
5764 5765 5766 5767 5768 5770 5771 5773 5774 5776 5778 5780 5781 5783 5785 5786 5788 5790 5792 5794 5795 5796 5797 5797 5798 5798 5798 5797 5797 5796 5795 5794 5793 5791 5789 5787 5786 5784
5761 5762 5763 5764 5765 5766 5768 5769 5770 5772 5774 5776 5778 5779 5781 5783 5784 5786 5787 5789 5789 5790 5791 5792 5792 5792 5792 5791 5791 5790 5789 5788 5786 5784 5783 5781 5779 5777
5759 5760 5760 5761 5762 5763 5765 5766 5767 5769 5770 5772 5774 5776 5777 5779 5780 5782 5783 5784 5785 5785 5786 5787 5787 5787 5787 5786 5785 5784 5783 5782 5780 5778 5777 5775 5773 5771
5757 5757 5758 5759 5760 5761 5762 5763 5764 5766 5768 5769 5771 5772 5774 5775 5776 5778 5779 5780 5781 5781 5782 5782 5783 5783 5782 5781 5780 5779 5778 5776 5775 5773 5771 5769 5767 5766
5756 5756 5756 5757 5758 5759 5760 5761 5762 5764 5765 5767 5768 5769 5771 5772 5773 5774 5775 5777 5777 5778 5778 5779 5779 5778 5778 5777 5775 5774 5773 5772 5770 5768 5766 5765 5763 5761
5756 5756 5756 5756 5756 5757 5758 5759 5760 5762 5763 5764 5765 5766 5768 5769 5770 5771 5772 5773 5774 5775 5775 5775 5775 5775 5774 5773 5772 5771 5769 5768 5766 5764 5763 5761 5759 5757
5756 5756 5756 5756 5756 5757 5758 5758 5759 5760 5761 5762 5763 5764 5765 5767 5768 5769 5770 5770 5771 5772 5772 5772 5772 5772 5771 5770 5769 5768 5766 5765 5763 5761 5760 5758 5756 5754
5757 5756 5756 5756 5756 5756 5757 5758 5758 5759 5759 5760 5761 5762 5764 5765 5766 5767 5768 5768 5769 5769 5770 5770 5770 5769 5769 5768 5767 5765 5764 5763 5761 5759 5757 5755 5753 5751
5759 5758 5757 5757 5757 5757 5757 5758 5758 5758 5759 5760 5760 5761 5762 5763 5764 5765 5766 5767 5767 5768 5768 5768 5768 5767 5767 5766 5765 5764 5762 5761 5759 5757 5755 5753 5751 5748
5762 5760 5759 5759 5758 5758 5758 5758 5759 5759 5759 5759 5760 5761 5762 5763 5764 5764 5765 5766 5766 5767 5767 5767 5767 5766 5766 5765 5764 5762 5761 5759 5758 5756 5753 5751 5749 5746
5765 5764 5762 5761 5761 5760 5760 5760 5760 5760 5760 5760 5761 5761 5762 5763 5764 5764 5765 5765 5766 5766 5766 5766 5766 5765 5765 5764 5763 5761 5760 5758 5756 5754 5752 5749 5747 5744
5769 5768 5766 5765 5764 5763 5763 5762 5762 5762 5762 5762 5762 5763 5763 5764 5764 5765 5765 5766 5766 5766 5766 5765 5765 5764 5764 5763 5762 5760 5758 5757 5755 5753 5751 5748 5745 5742
5774 5772 5771 5769 5768 5767 5766 5766 5765 5765 5765 5765 5765 5765 5765 5765 5766 5766 5766 5766 5766 5766 5766 5765 5764 5764 5763 5762 5761 5759 5758 5756 5754 5752 5750 5747 5744 5741
5778 5776 5775 5773 5772 5771 5770 5769 5769 5768 5768 5767 5767 5767 5767 5767 5767 5767 5767 5767 5766 5766 5766 5765 5764 5763 5763 5762 5760 5759 5757 5755 5753 5751 5748 5746 5743 5740
5781 5780 5778 5777 5776 5775 5774 5773 5772 5771 5771 5770 5770 5770 5769 5769 5769 5768 5768 5767 5767 5767 5766 5765 5765 5764 5763 5761 5760 5758 5756 5754 5752 5750 5748 5745 5742 5739